Regional Weather Roundup
Issued by NWS

Home | Current Version | Previous Version | Graphics & Text | Print | Product List | Glossary On
Versions: 1 2 3 4 5 6 7 8 9 10 11 12 13 14 15 16 17 18 19 20 21 22 23 24 25 26 27 28 29 30 31 32 33 34 35 36 37 38 39 40 41 42 43 44 45 46 47 48 49 50
000
ASUS45 KCYS 260610
RWRWY

WYOMING REGIONAL WEATHER ROUNDUP
NATIONAL WEATHER SERVICE CHEYENNE WY
1200 AM MDT THU MAR 26 2015

NOTE:  "FAIR" INDICATES FEW OR NO CLOUDS BELOW 12,000 FEET
WITH NO SIGNIFICANT WEATHER AND/OR OBSTRUCTIONS TO VISIBILITY.

WYZ001-260700-
YELLOWSTONE NATIONAL PARK

CITY           SKY/WX    TMP DP  RH WIND       PRES   REMARKS
LK YELLOWSTONE   N/A     21  16  81 CALM      30.36R
6HR MIN TEMP:  20; 6HR MAX TEMP:  30;

W YELLOWSTONE  NOT AVBL

$$
WYZ002>013-054>058-071-098>099-260700-
NORTHERN WYOMING

CITY           SKY/WX    TMP DP  RH WIND       PRES   REMARKS
JACKSON        MOCLDY    32  21  64 S15       30.34S WCI  22
CODY           FAIR      43  18  36 W17G26    30.18R
GREYBULL       CLOUDY    42  20  41 CALM      30.17R
6HR MIN TEMP:  42; 6HR MAX TEMP:  51;

WORLAND        MOCLDY    34  23  64 CALM      30.18S
6HR MIN TEMP:  34; 6HR MAX TEMP:  50;

SHERIDAN       CLOUDY    38  30  73 E3        30.15R
6HR MIN TEMP:  36; 6HR MAX TEMP:  50;

BUFFALO        CLOUDY    35  27  72 W5        30.16R WCI  31
6HR MIN TEMP:  33; 6HR MAX TEMP:  43;

GILLETTE       MOCLDY    35  28  75 S8        30.15S WCI  29
6HR MIN TEMP:  28; 6HR MAX TEMP:  44;

HULETT         CLOUDY    34  30  86 SW6       30.16S WCI  29
NEWCASTLE      FAIR      28  21  74 CALM      30.19S

$$
WYZ014>020-022>026-101>103-260700-
CENTRAL WYOMING

CITY           SKY/WX    TMP DP  RH WIND       PRES   REMARKS
BIG PINEY      FAIR      21  14  74 SW7       30.34S WCI  12
6HR MIN TEMP:  21; 6HR MAX TEMP:  40;

PINEDALE       MOCLDY    27  21  80 W9        30.34S WCI  17
DUBOIS         FAIR      30  14  51 NW17G24   30.26S WCI  18
LANDER         FAIR      33  15  47 CALM      30.20F
6HR MIN TEMP:  33; 6HR MAX TEMP:  50;

RIVERTON       FAIR      39  17  41 NW29G36   30.20F WCI  27
6HR MIN TEMP:  39; 6HR MAX TEMP:  49;

CASPER         FAIR      30  23  75 SW10      30.18S WCI  21
6HR MIN TEMP:  28; 6HR MAX TEMP:  46;

DOUGLAS        FAIR      26  24  92 SE5       30.19F WCI  20
6HR MIN TEMP:  26; 6HR MAX TEMP:  46;


$$
WYZ021-027>030-104>119-260700-
SOUTHERN WYOMING

CITY           SKY/WX    TMP DP  RH WIND       PRES   REMARKS
EVANSTON       FAIR      28  17  63 W9        30.39S WCI  19
6HR MIN TEMP:  28; 6HR MAX TEMP:  43;

FORT BRIDGER   FAIR      32  21  64 W12       30.40F WCI  23
ROCK SPRINGS   FAIR      29  18  63 W10       30.34S WCI  20
6HR MIN TEMP:  29; 6HR MAX TEMP:  44;

DIXON          FAIR      31  15  51 SW5       30.35R WCI  26
RAWLINS        FAIR      31  15  52 W18G26    30.26R WCI  19
6HR MIN TEMP:  31; 6HR MAX TEMP:  42;

SARATOGA       FAIR      28  14  54 W9        30.28S WCI  20
LARAMIE        FAIR      24  18  77 W7        30.20S WCI  16
6HR MIN TEMP:  24; 6HR MAX TEMP:  37;

CHEYENNE       FAIR      26  23  88 SW6       30.21F WCI  19
6HR MIN TEMP:  26; 6HR MAX TEMP:  39;

TORRINGTON     FAIR      30  25  81 SE3       30.21S
6HR MIN TEMP:  27; 6HR MAX TEMP:  48;

PINE BLUFFS    MOCLDY    27  23  86 S3        30.23F

$$



USA.gov is the U.S. government's official web portal to all federal, state and local government web resources and services.